joomla templates top joomla templates template joomla

King Air Abend

Wetterbeurteilung mit Hilfe Webcam und ATIS

 

Webcam 1Webcam 2

(Zum vergrößern auf das Bild klicken)

Wetteranzeige

Aktuelles Platzwetter Stand 6.12.2019 11:05Z

AvgMin / Max
Windrichtung170 Deg160 / 210 Deg
Windgeschwindigkeit7 kt4 / 9 kt
Sichtweite7000 m
Temperatur-2 °C
Taupunkt-3 °C
Feuchte92 %
QNH1017.1 hPa
QFE963.5 hPa
WolkenOVC005

Aerodrome Terminal Information Service (ATIS) Coburg

METAR
EDQC 061050Z AUTO 18007KT 6000 OVC005 M02/M03 Q1017=

Wetterverlauf

Notam

C3571/19 - AD PPR. 22 OCT 00:00 2019 UNTIL 09 DEC 23:59 2019. CREATED: 11 OCT 08:29 2019

C0503/18 - COBURG INFO CHANGED TO 128.680 (8.33 KHZ). 28 FEB 12:22 2018 UNTIL PERM. CREATED:
28 FEB 12:22 2018

Windvorhersage

Verkehrslandeplatz Coburg Brandensteinsebene
Tower
Zur Brandensteinsebene
96450 Coburg

 

Telefon +49 (0) 95 61 / 9 20 98
Telefax +49 (0) 95 61 / 9 20 06
EMail tower@vlp-coburg.de